Tracking 28888 objects as of 23-May-2024
HD Live streaming from Space Station
objects crossing your sky now

STARLINK-2078

Track STARLINK-2078 now!
10-day predictions
STARLINK-2078 is classified as:


NORAD ID: 47675
Int'l Code: 2021-012BH
Perigee: 553.4 km
Apogee: 555.4 km
Inclination: 53.1 °
Period: 95.6 minutes
Semi major axis: 6925 km
RCS: Unknown
Launch date: February 16, 2021
Source: United States (US)
Launch site: AIR FORCE EASTERN TEST RANGE (AFETR)
Your satellite tracking list
Your tracking list is empty




NASA's NSSDC Master Catalog

Two Line Element Set (TLE):
1 47675U 21012BH  24143.23871739  .00001098  00000-0  92619-4 0  9998
2 47675  53.0546 118.5363 0001452  98.1058 262.0096 15.06392856181329
Source of the keplerian elements: AFSPC